Flag for Sweden Weather past 2 weeks in Kiruna, Sweden

Now
30 °F

Light snow. Ice fog.


Feels Like: 20 °F
Forecast: 34 / 39 °F
Wind: 13 mph from South

Location: Kiruna Airport

Current Time: Oct 24, 2014 at 12:06:51 PM

Latest Report: Oct 24, 2014 at 11:20 AM


Visibility: 2 mi

Pressure: 29.80 "Hg

Humidity: 93%

Dew point: 28 °F

Location of KirunaLocation

Historic Weather in Kiruna — Graph

°F

Kiruna temperature yesterday

Maximum temperature yesterday: 28 °F (at 5:50 PM)
Minimum temperature yesterday: 23 °F (at 12:20 AM)
Average temperature yesterday: 26 °F

Past Weeks' High & Low Weather Summary

 TemperatureHumidityPressure
High36 °F (Oct 17, 2:20 PM)100% (Oct 10, 8:20 AM)30.12 "Hg (Oct 10, 8:20 AM)
Low16 °F (Oct 15, 4:50 AM)64% (Oct 9, 3:20 PM)29.59 "Hg (Oct 20, 1:20 AM)
Average27 °F89%29.92 "Hg
* Reported Oct 9 10:20 AM — Oct 24 10:50 AM, Kiruna, Weather by CustomWeather, © 2014

Note: Actual official high and low records may vary slightly from our data, if they occured in-between our weather recording intervals... More about our weather records

Advertising

Kiruna weather history for previous 24 hours

 ConditionsComfort  
Time TempWeatherWind HumidityBarometerVisibility
10:50 AM
Oct 24
30 °FLight snow. Mostly cloudy.16 mph93%29.80 "HgN/A
10:20 AM30 °FSnow flurries. Mostly cloudy.14 mph93%29.80 "Hg5 mi
9:50 AM30 °FMostly cloudy.15 mph86%29.80 "HgN/A
9:20 AM30 °FLight snow. Mostly cloudy.14 mph86%29.83 "HgN/A
8:50 AM28 °FLight snow. Mostly cloudy.8 mph93%29.83 "Hg5 mi
8:20 AM28 °FOvercast.8 mph93%29.83 "HgN/A
7:50 AM28 °FSnow flurries. Mostly cloudy.12 mph93%29.86 "HgN/A
7:20 AM28 °FPassing clouds.15 mph93%29.86 "HgN/A
6:50 AM28 °FOvercast.14 mph93%29.86 "HgN/A
6:20 AM28 °FLight snow. Mostly cloudy.14 mph93%29.86 "HgN/A
5:50 AM28 °FLight snow. Low clouds.16 mph93%29.86 "HgN/A
5:20 AM28 °FLow clouds.18 mph93%29.89 "Hg4 mi
4:50 AM28 °FLow clouds.20 mph93%29.89 "HgN/A
4:20 AM28 °FLow clouds.17 mph93%29.89 "HgN/A
3:50 AM28 °FMostly cloudy.21 mph93%29.89 "Hg5 mi
3:20 AM28 °FMostly cloudy.23 mph93%29.89 "HgN/A
2:50 AM28 °FLow clouds.14 mph93%29.92 "HgN/A
2:20 AM28 °FOvercast.17 mph86%29.92 "HgN/A
1:50 AM28 °FOvercast.13 mph86%29.92 "HgN/A
1:20 AM28 °FOvercast.18 mph86%29.92 "HgN/A
12:50 AM28 °FOvercast.24 mph86%29.92 "HgN/A
12:20 AM28 °FOvercast.21 mph86%29.92 "HgN/A
11:50 PM
Oct 23
28 °FOvercast.20 mph93%29.92 "HgN/A
11:20 PM28 °FLow clouds.23 mph93%29.92 "HgN/A
10:50 PM28 °FLight snow. Overcast.22 mph93%29.92 "Hg5 mi
10:20 PM28 °FLight snow. Passing clouds.24 mph86%29.92 "HgN/A
9:50 PM28 °FLight snow. Passing clouds.25 mph86%29.92 "Hg4 mi
9:20 PM28 °FLight snow. Passing clouds.23 mph86%29.95 "HgN/A
8:50 PM28 °FLight snow. Passing clouds.26 mph86%29.95 "HgN/A
8:20 PM28 °FPassing clouds.25 mph86%29.95 "HgN/A
7:50 PM28 °FPassing clouds.18 mph86%29.98 "HgN/A
7:20 PM28 °FLight snow. Passing clouds.18 mph86%29.98 "HgN/A
6:50 PM28 °FLight snow. Passing clouds.22 mph86%29.98 "HgN/A
6:20 PM28 °FLight snow. Passing clouds.23 mph80%29.98 "HgN/A
5:50 PM28 °FLight snow. Passing clouds.24 mph80%29.98 "HgN/A
5:20 PM27 °FLight snow. Partly sunny.25 mph86%29.98 "HgN/A
4:50 PM27 °FSnow flurries. Broken clouds.20 mph86%29.98 "HgN/A
4:20 PM27 °FLight snow. Partly sunny.20 mph86%30.01 "HgN/A
3:50 PM27 °FLight snow. Partly sunny.21 mph86%30.01 "Hg4 mi
3:20 PM27 °FLight snow. Partly sunny.21 mph86%30.04 "Hg5 mi
2:50 PM27 °FLight snow. Partly sunny.21 mph80%30.04 "HgN/A
2:20 PM27 °FLight snow. Overcast.20 mph80%30.04 "HgN/A
1:50 PM25 °FLight snow. Partly sunny.20 mph86%30.07 "HgN/A
1:20 PM25 °FLight snow. Broken clouds.22 mph80%30.07 "HgN/A
12:50 PM25 °FLight snow. Broken clouds.23 mph74%30.07 "HgN/A
12:20 PM25 °FLight snow. Partly sunny.22 mph74%30.07 "HgN/A
Weather by CustomWeather, © 2014

See weather overviewHow to use our weather pages